Regional Weather Roundup
Issued by NWS Austin/San Antonio, TX

Home | Current Version | Previous Version | Text Only | Print | Product List | Glossary On
Versions: 1 2 3 4 5 6 7 8 9 10 11 12 13 14 15 16 17 18 19 20 21 22 23 24 25 26 27 28 29 30 31 32 33 34 35 36 37 38 39 40 41 42 43 44 45 46 47 48 49 50
000
ASUS44 KEWX 211010
RWREWX
SOUTH TEXAS REGIONAL WEATHER ROUNDUP
NATIONAL WEATHER SERVICE AUSTIN/SAN ANTONIO TX
500 AM CDT SAT APR 21 2018

NOTE: "FAIR" INDICATED FEW OR NO CLOUDS BELOW 12,000 FEET WITH NO
SIGNIFICANT WEATHER AND/OR OBSTRUCTIONS TO VISIBILITY.

* - THESE STATIONS ARE NOT NWS OR FAA STATIONS...AND ARE NOT SUBJECT
    TO NWS AND FAA QUALITY CONTROL.

TXZ171-172-183>190-211100-
TEXAS HILL COUNTRY AND EDWARDS PLATEAU

CITY           SKY/WX    TMP DP  RH WIND       PRES   REMARKS
JUNCTION       CLOUDY    61  61 100 E6        29.96S FOG
*LLANO         CLOUDY    57  55  94 CALM      30.03S FOG
BURNET         LGT RAIN  56  55  97 E6        30.02F FOG
*HORSESHOE BAY   N/A     57  56  95 CALM      29.99F
*KERRVILLE     RAIN      61  58  91 SE8       29.97S
*FREDERICKSBRG DRIZZLE   56  55  95 SE5       29.98F
*ROCKSPRINGS   CLOUDY    59  57  94 S15G22    30.00S FOG
*BOERNE STAGE  CLOUDY    59  59 100 SE5       29.98R
*CASTROVILLE   CLOUDY    64  61  91 E5        29.96S
HONDO          CLOUDY    66  62  87 SE8       29.94F
*UVALDE        CLOUDY    64  61  90 E5        29.94S
DEL RIO        CLOUDY    65  63  93 E9        29.90F
LAUGHLIN AFB   MOCLDY    64  63  95 SE8       29.91F
CARRIZO SPRGS  CLOUDY    68  59  73 SE6       29.90S
*EAGLE PASS    CLOUDY    68  59  73 SE6       29.91F
*FAITH RANCH   CLOUDY    70  61  73 SE9       29.90S
$$

TXZ173-191>194-202-209-217>225-228-211100-
CENTRAL AND SOUTH CENTRAL TEXAS

CITY           SKY/WX    TMP DP  RH WIND       PRES   REMARKS
GEORGETOWN     CLOUDY    57  54  89 NE3       30.03R
AUSTIN/BERGSTM CLOUDY    60  56  86 N5        30.00R
AUSTIN/MABRY   CLOUDY    61  55  81 CALM      30.01R
*AUSTIN/EXEC   CLOUDY    59  57  94 CALM      30.02R
*LAGO VISTA    DRIZZLE   59  56  89 E5        30.01S
SAN MARCOS     CLOUDY    62  57  83 NE5       29.99R
NEW BRAUNFELS  CLOUDY    62  57  83 E3        29.96R
RANDOLPH AFB   CLOUDY    62  59  90 SE6       29.96R
PT SAN ANTONIO CLOUDY    64  60  88 E8        29.92S
SAN ANTONIO    CLOUDY    63  59  87 SE8       29.96R
STINSON FIELD  CLOUDY    65  61  87 E8        29.92F
*LA GRANGE     CLOUDY    64  60  90 SE3       29.94S
*GIDDINGS      CLOUDY    60  56  87 SE6       29.98R
*GONZALES      CLOUDY    63  60  90 SE3       29.95R
$$

TXZ163>164-176>182-195>201-210>213-226-227-235-211100-
SOUTHEAST TEXAS

CITY           SKY/WX    TMP DP  RH WIND       PRES   REMARKS
COLLEGE STN    CLOUDY    58  54  86 E7        29.99F
*BRYAN         CLOUDY    56  54  93 E7        30.01S
*CALDWELL      CLOUDY    58  53  84 E6        30.00R
*CROCKETT      PTCLDY    52  46  82 NE6       30.07F
*BRENHAM       CLOUDY    60  56  84 E8        29.98F
HUNTSVILLE     CLOUDY    58  49  72 E5        30.02F
CONROE         CLOUDY    58  53  84 E8        30.01F
HOUSTON BUSH   CLOUDY    61  54  77 E8        30.01F
HOUSTON HOBBY  CLOUDY    66  62  87 E9        29.99F
*HOUSTON SW AP CLOUDY    65  61  87 E7        29.99F
PEARLAND       CLOUDY    67  62  84 E10       30.01F
HOUSTON HOOKS  CLOUDY    61  54  77 E7        30.00F
ELLINGTON FLD  CLOUDY    66  64  94 E10       30.00F
SUGAR LAND     CLOUDY    67  61  81 E10       29.98F
*HOUSTON EXEC  CLOUDY    63  57  82 E9        29.99F
*CLEVELAND MUN CLOUDY    57  48  73 CALM      30.04F
*WHARTON       CLOUDY    64  60  85 E6        29.97F
*COLUMBUS      CLOUDY    62  59  90 W7        29.97F
*EAGLE LAKE    CLOUDY    64  61  91 E7        29.97F
$$

TXZ214>216-236>238-211100-
THE UPPER TEXAS COAST

CITY           SKY/WX    TMP DP  RH WIND       PRES   REMARKS
*ORANGE        CLOUDY    61  56  83 E6        30.08S
PORT ARTHUR    MOCLDY    62  54  74 E12       30.03F
GALVESTON      CLOUDY    68  64  87 E17       30.00F
ANGLETON       CLOUDY    69  64  84 E12       29.97F
*BAY CITY      CLOUDY    69  66  91 E7        29.97S
PALACIOS       CLOUDY    70  69  97 E9        29.95S
$$

TXZ229>234-239>247-211100-
TEXAS COASTAL BEND AND RIO GRANDE PLAINS

CITY           SKY/WX    TMP DP  RH WIND       PRES   REMARKS
VICTORIA       CLOUDY    62  60  93 E5        29.94F
*BEEVILLE      CLOUDY    64  64  99 E5        29.93S FOG
ROCKPORT       CLEAR     69  67  93 SE8       29.92F
*PORT ARANSAS  NOT AVBL
*PORT LAVACA   CLOUDY    68  66  92 SE7       29.95F
*INGLESIDE     PTCLDY    70  66  87 S8        29.92F
CORPUS CHRISTI MOCLDY    69  66  90 SE10      29.91F
CORPUS NAS     CLOUDY    73  32  22 SE13      29.91F
*ROBSTOWN      PTCLDY    66  64  92 E7        29.91F
ALICE          CLOUDY    66  64  93 E5        29.90F
KINGSVILLE NAS CLOUDY    68  66  93 SE5       29.90F
COTULLA        CLOUDY    68  63  84 SE8       29.91S
LAREDO         CLOUDY    69  63  81 SE10      29.88F
$$

TXZ248>255-211100-
DEEP SOUTH TEXAS

CITY           SKY/WX    TMP DP  RH WIND       PRES   REMARKS
BROWNSVILLE    CLOUDY    75  71  87 SE16      29.90F
PORT ISABEL    CLOUDY    74  68  81 SE13      29.89F
*SOUTH PADRE   NOT AVBL
HARLINGEN      CLEAR     71  69  93 SE13      29.87F
*HEBBRONVILLE  CLOUDY    65  62  88 SE9       29.91S
MCALLEN        MOCLDY    70  67  90 SE12      29.88F
*WESLACO       MOCLDY    69  66  90 S7        29.87F
FALFURRIAS     CLOUDY    66  63  90 E5        29.90S
EDINBURG       FAIR      68  65  89 SE5       29.88S
*ZAPATA        CLOUDY    71  63  76 SE12      29.86F
$$

TXZ213>215-236>238-242>244-246-247-251-254-255-211100-
CMAN STATIONS

STATION/POSITION TIME  TEMP    WIND        PRES    WAVE
                       AIR SEA DIR/SP/G            HT/PER
                 (UTC) (F)     (DEG/KT/KT) (MB)    (FT/S)
SABINE PASS      0942   66 70  120/ 13/ 15 1018.7
SEA RIM ST PARK  1000   66     110/ 14/ 17 1016.9
NORTH JETTY/GLS  0942      68  120/ 20/ 23 1015.6
EAGLE POINT      0942   67 67  130/ 16/ 19 1015.7
MORGANS POINT    0942   66 69  100/ 11/ 13 1016.1
PORT O`CONNOR    0942   70 71  130/  9/ 11 1013.6
PORT ARANSAS     1000   71 70  130/ 12/ 14 1013.0
MALAQUITE BEACH  0942      71  130/ 17/ 18 1012.4
BAFFIN BAY       0924   72 72  120/ 12/ 15 1012.9
PORT ISABEL      0942   73 75  150/ 12/ 17 1012.4
$$




USA.gov is the U.S. government's official web portal to all federal, state and local government web resources and services.